Flag for United Kingdom Weather past 2 weeks in Birmingham, England, United Kingdom

Now
63 °F

Passing clouds.


Feels Like: 63 °F
Forecast: 56 / 66 °F
Wind: 10 mph from Southwest

Location: Birmingham / Airport

Current Time: Aug 4, 2015 at 7:54:59 PM

Latest Report: Aug 4, 2015 at 7:20 PM


Visibility: N/A

Pressure: 29.89 "Hg

Humidity: 64%

Dew point: 50 °F

Location of BirminghamLocation

Historic Weather in Birmingham — Graph

°F

Birmingham temperature yesterday

Maximum temperature yesterday: 72 °F (at 2:50 PM)
Minimum temperature yesterday: 55 °F (at 4:20 AM)
Average temperature yesterday: 65 °F

Past Weeks' High & Low Weather Summary

 TemperatureHumidityPressure
High75 °F (Aug 2, 4:20 PM)100% (Jul 24, 3:50 PM)30.15 "Hg (Jul 24, 3:50 PM)
Low41 °F (Jul 31, 3:50 AM)32% (Jul 31, 6:50 PM)29.36 "Hg (Jul 26, 7:50 PM)
Average59 °F73%29.86 "Hg
* Reported Jul 20 6:20 PM — Aug 4 6:20 PM, Birmingham, Weather by CustomWeather, © 2015

Note: Actual official high and low records may vary slightly from our data, if they occured in-between our weather recording intervals... More about our weather records

Advertising

Birmingham weather history for previous 24 hours

 ConditionsComfort  
Time TempWeatherWind HumidityBarometerVisibility
6:20 PM
Tue, Aug 4
63 °FScattered clouds.14 mph68%29.89 "HgN/A
5:50 PM64 °FBroken clouds.12 mph68%29.89 "HgN/A
5:20 PM64 °FScattered showers. Broken clouds.12 mph64%29.86 "HgN/A
4:50 PM64 °FScattered showers. Scattered clouds.14 mph68%29.86 "HgN/A
4:20 PM64 °FScattered clouds.14 mph68%29.86 "HgN/A
3:50 PM66 °FPassing clouds.15 mph60%29.86 "HgN/A
3:20 PM66 °FBroken clouds.13 mph60%29.86 "HgN/A
2:50 PM68 °FBroken clouds.16 mph56%29.83 "HgN/A
2:20 PM66 °FBroken clouds.16 mph60%29.83 "HgN/A
1:50 PM66 °FBroken clouds.14 mph64%29.83 "HgN/A
1:20 PM66 °FBroken clouds.15 mph60%29.83 "HgN/A
12:50 PM66 °FBroken clouds.16 mph60%29.83 "HgN/A
12:20 PM64 °FBroken clouds.14 mph64%29.83 "HgN/A
11:50 AM63 °FBroken clouds.10 mph73%29.83 "HgN/A
11:20 AM63 °FBroken clouds.12 mph68%29.83 "HgN/A
10:50 AM63 °FPartly sunny.15 mph73%29.83 "HgN/A
10:20 AM63 °FBroken clouds.14 mph68%29.83 "HgN/A
9:50 AM61 °FScattered clouds.14 mph72%29.80 "HgN/A
9:20 AM59 °FBroken clouds.13 mph77%29.80 "HgN/A
8:50 AM59 °FBroken clouds.12 mph77%29.80 "HgN/A
8:20 AM57 °FScattered clouds.13 mph77%29.80 "HgN/A
7:50 AM57 °FScattered clouds.12 mph77%29.80 "HgN/A
7:20 AM55 °FPartly sunny.12 mph82%29.80 "HgN/A
6:50 AM55 °FBroken clouds.9 mph82%29.80 "HgN/A
6:20 AM54 °FPassing clouds.9 mph88%29.80 "HgN/A
5:50 AM54 °FPassing clouds.7 mph88%29.80 "HgN/A
5:20 AM54 °FClear.7 mph88%29.80 "Hg10 mi
4:50 AM54 °FClear.7 mph88%29.80 "Hg10 mi
4:20 AM54 °FClear.8 mph88%29.80 "Hg10 mi
3:50 AM54 °FClear.8 mph88%29.80 "Hg10 mi
3:20 AM54 °FClear.6 mph88%29.80 "Hg10 mi
2:50 AM55 °FClear.7 mph82%29.80 "Hg10 mi
2:20 AM55 °FClear.6 mph82%29.80 "Hg10 mi
1:50 AM55 °FClear.6 mph82%29.80 "Hg10 mi
1:20 AM55 °FPassing clouds.6 mph77%29.80 "HgN/A
12:50 AM59 °FPassing clouds.6 mph68%29.80 "HgN/A
12:20 AM59 °FPassing clouds.7 mph68%29.80 "HgN/A
11:50 PM
Mon, Aug 3
61 °FClear.8 mph63%29.80 "Hg10 mi
11:20 PM59 °FPassing clouds.5 mph72%29.80 "HgN/A
10:20 PM63 °FPassing clouds.6 mph64%29.80 "HgN/A
9:50 PM63 °FScattered clouds.7 mph64%29.80 "HgN/A
9:20 PM64 °FScattered clouds.8 mph64%29.80 "HgN/A
8:50 PM64 °FScattered clouds.9 mph64%29.80 "HgN/A
8:20 PM66 °FPassing clouds.10 mph56%29.80 "HgN/A
7:50 PM66 °FPassing clouds.7 mph60%29.80 "HgN/A
7:20 PM66 °FScattered clouds.8 mph60%29.77 "HgN/A
Weather by CustomWeather, © 2015

See weather overviewHow to use our weather pages